This is the latest recevied weather packets stored in our database for station/object DL5DI-H. If no packets are shown the sender has not sent any weather packets the latest 10 day(s).
| Time | Temp. | Humidity | Pressure | Rain* | Wind** | Luminosity | Snow |
|---|---|---|---|---|---|---|---|
| 1788094803 | 26.11° C | 50% | 1014.2 hPa | 0 mm | - | - | - |
| 1788094202 | 26.11° C | 50% | 1014.3 hPa | 0 mm | - | - | - |
| 1788093603 | 25.56° C | 50% | 1014.3 hPa | 0 mm | - | - | - |
| 1788093002 | 25.56° C | 51% | 1014.2 hPa | 0 mm | - | - | - |
| 1788092400 | 25° C | 54% | 1014.3 hPa | 0 mm | - | - | - |
| 1788091801 | 25° C | 53% | 1014.3 hPa | 0 mm | - | - | - |
| 1788091204 | 24.44° C | 54% | 1014.3 hPa | 0 mm | - | - | - |
| 1788090601 | 25° C | 53% | 1014.2 hPa | 0 mm | - | - | - |
| 1788090002 | 24.44° C | 53% | 1014.3 hPa | 0 mm | - | - | - |
| 1788089400 | 24.44° C | 53% | 1014.2 hPa | 0 mm | - | - | - |
| 1788088800 | 23.33° C | 57% | 1014.3 hPa | 0 mm | - | - | - |
| 1788088201 | 23.33° C | 57% | 1014.3 hPa | 0 mm | - | - | - |
| 1788087600 | 23.89° C | 58% | 1014.3 hPa | 0 mm | - | - | - |
| 1788087001 | 23.33° C | 60% | 1014.3 hPa | 0 mm | - | - | - |
| 1788086400 | 23.33° C | 60% | 1014.3 hPa | 0 mm | - | - | - |
| 1788085802 | 22.78° C | 63% | 1014.4 hPa | 0 mm | - | - | - |
| 1788085201 | 22.22° C | 65% | 1014.4 hPa | 0 mm | - | - | - |
| 1788084602 | 22.22° C | 64% | 1014.4 hPa | 0 mm | - | - | - |
| 1788084002 | 22.22° C | 63% | 1014.5 hPa | 0 mm | - | - | - |
| 1788083402 | 22.22° C | 65% | 1014.5 hPa | 0 mm | - | - | - |
| 1788082800 | 22.22° C | 64% | 1014.5 hPa | 0 mm | - | - | - |
| 1788082202 | 21.67° C | 64% | 1014.5 hPa | 0 mm | - | - | - |
| 1788081612 | 21.67° C | 64% | 1014.6 hPa | 0 mm | - | - | - |
| 1788081000 | 21.11° C | 67% | 1014.5 hPa | 0 mm | - | - | - |
| 1788080402 | 21.11° C | 66% | 1014.5 hPa | 0 mm | - | - | - |
* Rain latest hour (hover to see other rain measurements)
** Current wind speed in m/s (hover to see current wind gust speed)